• In Norway
  • List of Countries
  • For 7 days
  • Water Temperature
  • Satellite Maps
  • Weather Map
  • Weather Widgets
  • user-avatar
    Login

    Hourly Weather Godowo

    Today, 18 June, Monday

    Time Temperature Precipitation Wind Pressure Humidity
    00:00 +15°C° 0 mm 1 mps 756 mmHg 88%
    01:00 +15°C° 0 mm 1 mps 756 mmHg 88%
    02:00 +15°C° 0 mm 1 mps 757 mmHg 88%
    03:00 +14°C° 0 mm 1 mps 757 mmHg 88%
    04:00 +14°C° 0 mm 1 mps 757 mmHg 88%
    05:00 +16°C° 0 mm 1 mps 757 mmHg 83%
    06:00 +18°C° 0 mm 1 mps 758 mmHg 79%
    07:00 +19°C° 0 mm 1 mps 758 mmHg 74%
    08:00 +20°C° 0.2 mm 1 mps 758 mmHg 73%
    09:00 +20°C° 0.2 mm 1 mps 758 mmHg 71%
    10:00 +20°C° 0.2 mm 2 mps 758 mmHg 69%
    11:00 +21°C° 0.1 mm 2 mps 758 mmHg 66%
    12:00 +21°C° 0.1 mm 2 mps 758 mmHg 64%
    13:00 +23°C° 0.1 mm 2 mps 758 mmHg 61%
    14:00 +23°C° 0 mm 2 mps 758 mmHg 60%
    15:00 +23°C° 0 mm 2 mps 758 mmHg 59%
    16:00 +23°C° 0 mm 2 mps 757 mmHg 58%
    17:00 +23°C° 0 mm 2 mps 757 mmHg 62%
    18:00 +21°C° 0 mm 2 mps 757 mmHg 65%
    19:00 +22°C° 0 mm 1 mps 757 mmHg 69%
    20:00 +19°C° 0 mm 2 mps 758 mmHg 73%
    21:00 +18°C° 0 mm 2 mps 758 mmHg 78%
    22:00 +16°C° 0 mm 2 mps 758 mmHg 82%
    23:00 +16°C° 0 mm 2 mps 758 mmHg 85%

    Tomorrow, 19 June, Tuesday

    Time Temperature Precipitation Wind Pressure Humidity
    00:00 +16°C° 0 mm 2 mps 758 mmHg 88%
    01:00 +15°C° 0 mm 2 mps 758 mmHg 91%
    02:00 +15°C° 0 mm 2 mps 758 mmHg 91%
    03:00 +14°C° 0 mm 3 mps 758 mmHg 91%
    04:00 +14°C° 0 mm 3 mps 758 mmHg 91%
    05:00 +16°C° 0.1 mm 3 mps 758 mmHg 88%
    06:00 +17°C° 0.1 mm 4 mps 758 mmHg 86%
    07:00 +18°C° 0.1 mm 4 mps 758 mmHg 84%
    08:00 +19°C° 0 mm 5 mps 758 mmHg 76%
    09:00 +20°C° 0 mm 5 mps 758 mmHg 69%
    10:00 +22°C° 0 mm 5 mps 758 mmHg 62%
    11:00 +22°C° 0 mm 5 mps 758 mmHg 60%
    12:00 +23°C° 0 mm 5 mps 758 mmHg 58%
    13:00 +25°C° 0 mm 5 mps 758 mmHg 56%
    14:00 +23°C° 0.1 mm 4 mps 758 mmHg 61%
    15:00 +23°C° 0.1 mm 4 mps 758 mmHg 66%
    16:00 +22°C° 0.1 mm 4 mps 758 mmHg 72%
    17:00 +21°C° 0.1 mm 4 mps 758 mmHg 75%
    18:00 +21°C° 0.1 mm 4 mps 759 mmHg 79%
    19:00 +20°C° 0.1 mm 3 mps 759 mmHg 83%
    20:00 +19°C° 0 mm 3 mps 759 mmHg 85%
    21:00 +18°C° 0 mm 2 mps 760 mmHg 87%
    22:00 +17°C° 0 mm 2 mps 760 mmHg 89%
    23:00 +16°C° 0 mm 2 mps 760 mmHg 89%

    Day after tomorrow, 20 June, Wednesday

    Time Temperature Precipitation Wind Pressure Humidity
    00:00 +15°C° 0 mm 2 mps 761 mmHg 89%
    01:00 +14°C° 0 mm 2 mps 761 mmHg 89%
    02:00 +13°C° 0 mm 2 mps 761 mmHg 89%
    03:00 +13°C° 0 mm 2 mps 761 mmHg 89%
    04:00 +12°C° 0 mm 2 mps 761 mmHg 89%
    05:00 +14°C° 0 mm 2 mps 761 mmHg 83%
    06:00 +15°C° 0 mm 2 mps 762 mmHg 76%
    07:00 +16°C° 0 mm 2 mps 762 mmHg 70%
    08:00 +18°C° 0 mm 2 mps 762 mmHg 63%
    09:00 +19°C° 0 mm 2 mps 762 mmHg 56%
    10:00 +21°C° 0 mm 2 mps 762 mmHg 49%
    11:00 +23°C° 0 mm 2 mps 761 mmHg 48%
    12:00 +24°C° 0 mm 2 mps 761 mmHg 47%
    13:00 +25°C° 0 mm 2 mps 761 mmHg 47%
    14:00 +25°C° 0 mm 2 mps 760 mmHg 47%
    15:00 +26°C° 0 mm 2 mps 760 mmHg 48%
    16:00 +26°C° 0 mm 2 mps 760 mmHg 49%
    17:00 +26°C° 0 mm 1 mps 759 mmHg 54%
    18:00 +25°C° 0 mm 1 mps 759 mmHg 58%
    19:00 +22°C° 0 mm 0 mps 759 mmHg 63%
    20:00 +23°C° 0 mm 1 mps 759 mmHg 65%
    21:00 +21°C° 0 mm 1 mps 759 mmHg 68%
    22:00 +19°C° 0 mm 2 mps 758 mmHg 70%
    23:00 +18°C° 0 mm 2 mps 758 mmHg 71%

    21 June, Thursday

    Time Temperature Precipitation Wind Pressure Humidity
    00:00 +18°C° 0 mm 3 mps 758 mmHg 73%
    01:00 +17°C° 0 mm 3 mps 757 mmHg 74%
    02:00 +17°C° 0 mm 3 mps 757 mmHg 76%
    03:00 +17°C° 0 mm 3 mps 756 mmHg 79%
    04:00 +17°C° 0 mm 3 mps 756 mmHg 81%
    05:00 +19°C° 0 mm 3 mps 755 mmHg 79%
    06:00 +20°C° 0 mm 3 mps 755 mmHg 77%
    07:00 +22°C° 0 mm 4 mps 754 mmHg 74%
    08:00 +23°C° 0.2 mm 4 mps 754 mmHg 70%
    09:00 +26°C° 0.2 mm 4 mps 753 mmHg 65%
    10:00 +27°C° 0.2 mm 4 mps 753 mmHg 61%
    11:00 +27°C° 0.5 mm 4 mps 752 mmHg 60%
    12:00 +28°C° 0.5 mm 4 mps 751 mmHg 60%
    13:00 +28°C° 0.5 mm 5 mps 750 mmHg 59%
    14:00 +27°C° 1 mm 5 mps 750 mmHg 65%
    15:00 +26°C° 1 mm 5 mps 750 mmHg 70%
    16:00 +23°C° 1 mm 5 mps 749 mmHg 76%
    17:00 +21°C° 0.4 mm 6 mps 750 mmHg 78%
    18:00 +19°C° 0.4 mm 6 mps 750 mmHg 80%
    19:00 +16°C° 0.4 mm 6 mps 750 mmHg 83%
    20:00 +15°C° 0.1 mm 6 mps 750 mmHg 82%
    21:00 +14°C° 0.1 mm 6 mps 751 mmHg 81%
    22:00 +11°C° 0.1 mm 6 mps 751 mmHg 80%
    23:00 +11°C° 0 mm 6 mps 751 mmHg 79%

    22 June, Friday

    Time Temperature Precipitation Wind Pressure Humidity
    00:00 +10°C° 0 mm 6 mps 751 mmHg 79%
    01:00 +9°C° 0 mm 6 mps 751 mmHg 78%
    02:00 +9°C° 0 mm 6 mps 751 mmHg 77%
    03:00 +9°C° 0 mm 6 mps 751 mmHg 76%
    04:00 +9°C° 0 mm 6 mps 751 mmHg 75%
    05:00 +10°C° 0 mm 7 mps 752 mmHg 71%
    06:00 +10°C° 0 mm 8 mps 752 mmHg 66%
    07:00 +11°C° 0 mm 9 mps 752 mmHg 62%
    08:00 +12°C° 0 mm 9 mps 752 mmHg 60%
    09:00 +12°C° 0 mm 9 mps 752 mmHg 59%
    10:00 +12°C° 0 mm 9 mps 753 mmHg 58%
    11:00 +13°C° 0.4 mm 9 mps 753 mmHg 59%
    12:00 +13°C° 0.4 mm 9 mps 753 mmHg 61%
    13:00 +15°C° 0.4 mm 9 mps 753 mmHg 63%
    14:00 +15°C° 0.5 mm 8 mps 752 mmHg 64%
    15:00 +15°C° 0.5 mm 8 mps 752 mmHg 65%
    16:00 +15°C° 0.5 mm 7 mps 752 mmHg 66%
    17:00 +15°C° 0.1 mm 7 mps 752 mmHg 67%
    18:00 +14°C° 0.1 mm 6 mps 752 mmHg 68%
    19:00 +14°C° 0.1 mm 5 mps 752 mmHg 69%
    20:00 +13°C° 0 mm 6 mps 752 mmHg 72%
    21:00 +11°C° 0 mm 6 mps 752 mmHg 75%
    22:00 +10°C° 0 mm 6 mps 752 mmHg 78%
    23:00 +10°C° 0.1 mm 6 mps 752 mmHg 80%

    23 June, Saturday

    Time Temperature Precipitation Wind Pressure Humidity
    00:00 +10°C° 0.1 mm 6 mps 752 mmHg 83%
    01:00 +10°C° 0.1 mm 6 mps 752 mmHg 85%
    02:00 +10°C° 0.1 mm 6 mps 752 mmHg 85%
    03:00 +10°C° 0.1 mm 6 mps 752 mmHg 85%
    04:00 +9°C° 0.1 mm 6 mps 752 mmHg 85%
    05:00 +10°C° 0 mm 6 mps 752 mmHg 83%
    06:00 +11°C° 0 mm 6 mps 752 mmHg 82%
    07:00 +11°C° 0 mm 6 mps 752 mmHg 80%
    08:00 +13°C° 0.2 mm 6 mps 752 mmHg 75%
    09:00 +14°C° 0.2 mm 7 mps 752 mmHg 71%
    10:00 +15°C° 0.2 mm 7 mps 752 mmHg 66%
    11:00 +16°C° 0.6 mm 7 mps 753 mmHg 67%
    12:00 +16°C° 0.6 mm 7 mps 753 mmHg 67%
    13:00 +17°C° 0.6 mm 6 mps 753 mmHg 67%
    14:00 +17°C° 0.3 mm 6 mps 753 mmHg 66%
    15:00 +17°C° 0.3 mm 6 mps 753 mmHg 64%
    16:00 +17°C° 0.3 mm 5 mps 753 mmHg 62%
    17:00 +17°C° 0.1 mm 5 mps 753 mmHg 65%
    18:00 +16°C° 0.1 mm 5 mps 753 mmHg 69%
    19:00 +17°C° 0.1 mm 4 mps 753 mmHg 72%
    20:00 +15°C° 0 mm 4 mps 754 mmHg 77%
    21:00 +14°C° 0 mm 5 mps 754 mmHg 82%
    22:00 +12°C° 0 mm 5 mps 755 mmHg 87%
    23:00 +12°C° 0 mm 5 mps 755 mmHg 88%
    Show more